Regional Weather Roundup
Issued by NWS San Diego, CA

Home | Current Version | Previous Version | Text Only | Print | Product List | Glossary On
Versions: 1 2 3 4 5 6 7 8 9 10 11 12 13 14 15 16 17 18 19 20 21 22 23 24 25 26 27 28 29 30 31 32 33 34 35 36 37 38 39 40 41 42 43 44 45 46 47 48 49 50
000
ASUS46 KSGX 030811
RWRSGX
NATIONAL WEATHER SERVICE SAN DIEGO CA
1200 AM PST TUE MAR 03 2015

NOTE: "FAIR" INDICATES FEW OR NO CLOUDS BELOW 12,000 FEET WITH NO
SIGNIFICANT WEATHER AND/OR OBSTRUCTIONS TO VISIBILITY.

CAZ042-043-060-061-PZZ750-775-030900-

GREATER SAN DIEGO AREA

CITY           SKY/WX    TMP DP  RH WIND       PRES   REMARKS
LINDBERGH FLD  PTCLDY    54  46  74 E7        29.98F
NATIONAL CITY    N/A     52  46  79 CALM      29.98F
CHULA VISTA      N/A     49  47  91 CALM      29.90F
IMPERIAL BEACH LGT RAIN  51  47  86 E7        29.97F
BROWN FIELD    PTCLDY    49  44  83 SE6       29.96F
MIRAMAR MCAS   PTCLDY    50  45  83 E7        29.96F
MONTGOMERY FLD PTCLDY    52  45  77 E5        29.97F

$$

NORTH SAN DIEGO COUNTY

CITY           SKY/WX    TMP DP  RH WIND       PRES   REMARKS
CAMP PENDLETON PTCLDY    45  40  82 NE3       29.98F
OCEANSIDE AP   PTCLDY    44  41  89 NE5       29.97F
OCEANSIDE HBR    N/A     49  45  87 E3        30.00F
VISTA            N/A     44  39  82 CALM      29.97F
CARLSBAD       MOCLDY    49  43  80 E7        29.96F
DEL MAR          N/A     50  47  89 CALM      29.99F
LA JOLLA SCRIP   N/A     52   3  13 CALM      29.94F
FALLBROOK        N/A     48  46  95 NE3       30.00F
ESCONDIDO        N/A     46  42  86 CALM      30.01F
SAN MARCOS       N/A     47  43  85 CALM      29.97F
POWAY            N/A     45  42  89 CALM      30.00F

$$

EAST SAN DIEGO COUNTY

CITY           SKY/WX    TMP DP  RH WIND       PRES   REMARKS
RAMONA         CLEAR     37  36  96 SE3       29.97F FOG
SANTEE LAKES     N/A     46  44  91 CALM      29.99F
LA MESA          N/A     49  45  84 CALM      29.92F
JAMUL            N/A     44  42  93 CALM      29.98F
DESCANSO N       N/A     36  35  95 CALM      29.92F
MT. LAGUNA OBS   N/A     29  29 100 CALM      29.52R
CAMPO            N/A     37  35  92 N6        29.92F WCI  32

$$

ORANGE COUNTY AND THE LOS ANGELES BASIN

CITY           SKY/WX    TMP DP  RH WIND       PRES   REMARKS
JOHN WAYNE AP  PTCLDY    54  40  59 E3        29.98S
LAKE FOREST FR   N/A     46  37  71 CALM      29.90S
SANTA ANA        N/A     49  42  76 CALM      29.93F
HUNTINGTON BCH   N/A     50  45  81 E3        29.99F
LOS ALAMITOS   FAIR      48  43  82 NE6       29.98S
FULLERTON      CLEAR     50  42  74 E5        29.97F
LONG BEACH     PTCLDY    51  44  77 E3        29.98S
L.A. AP        HVY RAIN  51  47  86 SE5       29.98S FOG
L.A. DOWNTOWN  CLOUDY    54  45  71 VRB3      29.98S

$$

THE INLAND EMPIRE

CITY           SKY/WX    TMP DP  RH WIND       PRES   REMARKS
CORONA         CLEAR     39  39 100 CALM      30.00S
CHINO          CLEAR     46  42  86 CALM      30.00S
ONTARIO        MOCLDY    49  41  74 CALM      29.98S
RIVERSIDE AP   CLEAR     46  41  82 E5        29.99S
RIV CYN CREST    N/A     46  46 100 S6          N/A
MORENO VALLEY    N/A     46  44  96 SE2       29.19R
MARCH ARB      MOCLDY    39  39 100 CALM      29.97F
HORSETHIEF CYN   N/A     40  35  80 SW2       29.99S
PERRIS           N/A     44  43  95 E1          N/A
MENIFEE          N/A     42  41  97 CALM      30.09S
HEMET EAST       N/A     41  34  77 CALM      30.02S
FRENCH VALLEY  PTSUNNY   41  39  93 CALM      29.98F
TEMECULA         N/A     42  41  97 CALM      29.95S

$$

SAN BERNARDINO AND RIVERSIDE COUNTY MOUNTAINS

CITY           SKY/WX    TMP DP  RH WIND       PRES   REMARKS
BIG BEAR AP    CLEAR     16  12  86 CALM      29.93R
PINE COVE        N/A     25  24  98 CALM      30.04S

$$

SOUTHERN DESERT INCLUDING THE COACHELLA VALLEY

CITY           SKY/WX    TMP DP  RH WIND       PRES   REMARKS
PALM SPRINGS   CLEAR     50  41  71 N8        29.97F
THOUSAND PALMS   N/A     50  42  72 CALM      29.95F
PALM DESERT      N/A     47  43  85 CALM      29.30R
THERMAL        CLEAR     44  40  85 NW7       29.94F
BLYTHE         CLEAR     51  45  79 SE3       29.95S
IMPERIAL AP    CLEAR     51  42  71 W5        29.94F
EL CENTRO NAS  CLEAR     50  42  74 NW7       29.94F
YUMA AZ        CLEAR     55  47  74 CALM      29.95F

$$

UPPER DESERT

CITY           SKY/WX    TMP DP  RH WIND       PRES   REMARKS
VICTORVILLE AP   N/A     37  34  87 S5        29.95S WCI  34
HESPERIA         N/A     39  35  85 W3        30.13R
APPLE VALLEY     N/A     40  33  75 CALM      30.04R
PALMDALE       PTCLDY    38  35  89 CALM      29.95F
LANCASTER      PTCLDY    39  34  82 W10       29.95F WCI  32
EDWARDS AFB    CLEAR     42  35  77 SW6       29.93R
DAGGETT        PTCLDY    43  34  70 W8        29.95S HAZE
29 PALMS N     CLEAR     43  36  76 NW6       30.01S
NEEDLES        CLEAR     50  43  77 CALM      29.95F

$$

REGIONAL REPORTS

CITY           SKY/WX    TMP DP  RH WIND       PRES   REMARKS
SANTA BARBARA  PTCLDY    48  42  80 NE3       29.96S
SANDBERG       CLOUDY    36  31  82 S10       29.93F WCI  28
MT. WILSON       N/A     28  30 100 MISG        N/A
LAS VEGAS NV   CLEAR     46  36  68 N6        29.89S
PHOENIX AZ     CLOUDY    52  47  83 E6        29.96F
TIJUANA        PTCLDY    50  43  76 E5        29.99F
ENSENADA NW      N/A     53  32  44 E7        29.96F

$$

OFFSHORE ISLANDS

CITY           SKY/WX    TMP DP  RH WIND       PRES   REMARKS
CATALINA ARPT  PTCLDY    46  32  58 SE5       29.95F

$$

MARINE AND OFFSHORE BUOY REPORTS

STATION/POSITION SKY/WX   TEMP    WIND        PRES    SWELL
                          AIR SEA DIR/SP/G            HT/PER/DIR
                          (F)     (DEG/KT/KT) (MB)    (FT/S/D)
TANNER BANKS               58 60  160/ 10/ 12 1013.0F   5/310/11
S CLEMENTE BASIN           59 62  160/  6/  8 1013.7F   3/270/11
SAN NICOLAS IS.               60                N/A     3/310/11
SO. S. ROSA ISLA           56 59  340/  6/  8 1013.3R   5/10
W. S. BARBARA CH           56 59   70/ 12/ 16 1013.8R   5/320/11
S. MONICA BASIN            58 62   90/  6/  8 1014.6F   2/340/21
S PEDRO CHANNEL               60                N/A     2/240/11
DANA POINT                    61                N/A     2/220/13
CMP PENDLETON NS              62                N/A     2/220/14
OCEANSIDE OFFSHR              62                N/A     2/200/14
TORREY PINES OTR              62                N/A     2/200/14
LA JOLLA 1                        100/ 10/ 11   N/A
MISSION BAY BUOY              62                N/A     2/200/14
SAN DIEGO BAY                                 1015.6F
POINT LOMA SOUTH              62                N/A     2/210/14

$$



USA.gov is the U.S. government's official web portal to all federal, state and local government web resources and services.